Location: Campbell River
(50.0170°N, 125.2500°W)
Time: 02:03:55
(UTC-08:00)

Daily predictions for brighter satellites

Satellite Brightness Start Highest point End
(mag) Time Altitude Azimuth Time Altitude Azimuth Time Altitude Azimuth
ATLAS 2AS CENTAUR R/B 4.3 03:55:22 31° N 03:55:22 31° N 04:02:16 10° ENE
SL-16 R/B 4.1 04:04:45 25° E 04:04:45 25° E 04:07:21 10° ESE
Cosmos 2297 Rocket 3.8 04:15:16 30° ESE 04:15:16 30° ESE 04:20:04 10° NE
ADEOS Rocket 4.5 04:08:54 10° NNE 04:13:17 38° N 04:13:17 38° N
Cosmos 2227 Rocket 3.3 04:28:45 41° ENE 04:28:45 41° ENE 04:33:02 10° NE
NOSS 3-1 (C) 4.3 04:28:35 52° N 04:29:33 56° NE 04:37:28 10° ESE
USA 234 3.6 04:24:15 10° E 04:30:20 57° NNE 04:30:20 57° NNE
ATLAS CENTAUR R/B 4.4 04:45:56 10° NNE 04:45:56 10° NNE 04:45:57 10° NNE
Tsikada Rocket 4.1 04:49:34 74° NE 04:49:57 77° ENE 04:56:18 10° SSE
Cosmos 2082 3.9 04:56:44 68° ESE 04:56:44 68° ESE 05:02:22 10° NNE
SeaSat 1 3.2 04:58:38 10° NNE 05:02:08 47° NE 05:02:08 47° NE
ADEOS II 3.8 05:00:37 10° N 05:02:29 22° N 05:02:29 22° N
ISS -0.3 05:21:28 12° SE 05:21:28 12° SE 05:21:45 10° SE
Cosmos 1864 Rocket 4.3 05:15:31 23° S 05:19:29 85° W 05:25:43 10° N
Cosmos 1725 Rocket 3.9 05:14:41 18° S 05:19:35 84° W 05:25:57 10° N
Cosmos 304 Rocket 4.4 05:22:03 47° SSE 05:22:03 47° SSE 05:25:27 10° SSE
USA 229 DEB 3.9 05:25:53 50° WSW 05:25:53 50° WSW 05:32:46 10° SSE
USA 229 3.9 05:25:56 50° WSW 05:26:00 50° WSW 05:32:53 10° SSE
Genesis I 3.9 05:28:50 53° E 05:28:50 53° E 05:32:06 10° SE
Cosmos 2058 3.9 05:28:17 25° NNE 05:30:18 45° ENE 05:34:17 10° SSE
NOSS 3-1 (A) 4.0 05:35:48 33° NW 05:39:40 86° NE 05:47:57 10° SE
SL-08 R/B 4.5 05:39:54 51° W 05:40:02 51° WNW 05:45:59 10° N
SL-8 R/B 3.7 05:41:56 60° SW 05:42:16 62° SSW 05:47:01 10° ESE
SL-16 R/B 2.5 05:46:41 43° WSW 05:46:41 43° WSW 05:51:37 10° S
ATLAS 2AS CENTAUR R/B 3.7 05:42:48 21° NW 05:48:14 49° NNE 05:55:49 10° ESE
ERBS 3.5 05:51:26 34° S 05:51:26 34° S 05:53:41 10° SE
Cosmos 1842 Rocket 3.4 05:49:16 10° SSW 05:53:37 79° W 05:58:01 10° N
Cosmos 2151 2.8 05:52:46 48° NNW 05:53:53 79° W 05:58:05 10° S
Cosmos 1356 Rocket 4.4 05:50:48 10° N 05:54:39 46° ENE 05:58:39 10° SSE
Feng Yun 1-1 Rocket 4.3 05:49:29 10° N 05:54:44 51° WNW 05:56:43 34° WSW
COSMO-SKYMED 1 3.1 05:50:41 10° S 05:53:55 41° SW 05:53:55 41° SW
Helios 1B rocket 4.4 05:53:26 10° ESE 05:56:57 28° ENE 06:00:30 10° N
Cosmos 1340 Rocket 2.7 05:55:44 38° N 05:57:10 86° E 06:01:07 10° SSE
Meteor 1-4 Rocket 2.4 05:57:30 63° SW 05:58:01 78° WNW 06:01:51 10° N
Cosmos 1805 Rocket 4.2 05:54:04 10° N 05:58:28 56° ENE 06:02:47 10° SSE
Cosmos 2297 Rocket 2.2 05:57:07 38° WSW 05:59:00 55° NW 06:04:36 10° NNE
Cosmos 1271 Rocket 3.0 05:59:58 10° S 06:03:45 67° E 06:07:32 10° NNE
Cosmos 1538 Rocket 4.1 06:02:23 35° NW 06:04:23 54° WSW 06:09:35 10° S
Meteor 1-11 4.2 05:59:36 10° NNW 06:05:25 73° W 06:11:12 10° S
Meteor 1-28 Rocket 3.2 06:02:18 10° S 06:05:53 55° WSW 06:05:53 55° WSW
Cosmos 1500 Rocket 4.2 06:06:57 36° WSW 06:06:57 36° WSW 06:10:16 10° SSW
SL-14 R/B 3.4 06:06:43 51° WNW 06:07:13 55° W 06:11:11 10° S
Cosmos 2233 Rocket 4.0 06:02:36 10° SSW 06:08:47 60° WNW 06:15:03 10° N
Cosmos 2227 Rocket 2.7 06:10:37 34° WNW 06:11:50 37° NW 06:17:06 10° NNE
ATLAS CENTAUR R/B 3.1 06:10:30 27° NNW 06:11:53 35° NNE 06:19:16 10° E
Cosmos 923 Rocket 3.9 06:07:46 16° NNW 06:11:56 89° ENE 06:17:12 10° SSE
USA 234 3.2 06:07:00 10° SE 06:13:35 76° SW 06:17:42 25° WNW
Cosmos 1626 2.6 06:10:38 10° N 06:14:21 61° ENE 06:18:03 10° SSE
Ariane Rocket 3.0 06:10:06 10° NNE 06:15:15 89° ESE 06:20:21 10° SSW
Meteor 1-16 Rocket 4.0 06:10:21 10° SSW 06:15:45 77° WNW 06:21:07 10° N
Cosmos 292 Rocket 3.7 06:12:40 17° NNW 06:16:23 86° ENE 06:21:11 10° SSE
Okean-O 4.4 06:15:06 10° N 06:16:33 17° NNW 06:16:33 17° NNW
Cosmos 220 Rocket 4.0 06:15:31 14° SW 06:19:14 58° WNW 06:23:35 10° NNE
NOSS 3-1 (C) 4.2 06:16:00 24° WNW 06:20:40 54° WSW 06:28:36 10° SSE
Cosmos 1680 Rocket 3.6 06:15:46 12° NNW 06:20:48 83° ENE 06:26:08 10° SSE
ATLAS CENTAUR R/B 3.6 06:22:14 12° NNW 06:22:40 12° N 06:24:24 10° NNE
Sich 1 3.4 06:19:05 10° N 06:23:29 66° ENE 06:27:46 10° SSE
Cosmos 1633 Rocket 3.5 06:21:30 10° N 06:25:51 62° ENE 06:30:09 10° SSE
SMAP 4.3 06:22:25 10° NNE 06:26:54 44° E 06:31:22 10° S
Cosmos 2034 Rocket 4.2 06:22:21 10° S 06:28:31 74° E 06:34:47 10° NNE
Cosmos 1943 3.3 06:23:49 12° NNW 06:29:15 83° ENE 06:34:58 10° SSE
CZ-4 R/B 2.1 06:26:43 10° NNE 06:30:43 57° ESE 06:34:44 10° S
Nadezhda 4 Rocket 4.2 06:24:55 10° N 06:31:18 76° E 06:37:35 10° SSE
CZ-2C R/B 3.0 06:27:29 10° NNE 06:32:03 56° E 06:36:32 10° S
Coronas F rocket 1.3 06:36:27 16° N 06:38:12 64° E 06:40:34 10° SSE
SeaSat 1 3.7 06:36:52 10° N 06:40:38 22° NW 06:41:56 20° WNW
Meteor 2-1 Rocket 4.2 06:35:01 10° SSW 06:40:39 75° WNW 06:46:27 10° N
PAYLOAD A 3.9 06:36:26 10° NNE 06:41:35 85° WNW 06:46:29 10° SSW
YAOGAN 1 3.3 06:40:17 10° NNE 06:44:35 56° E 06:48:50 10° S
ADEOS II 3.9 06:42:16 10° NNW 06:43:26 12° NW 06:43:26 12° NW
CSL-04 Debris 4.1 06:39:18 10° NNE 06:44:48 75° WNW 06:50:15 10° SSW
Cosmos 1513 Rocket 4.5 06:39:26 10° SSW 06:45:43 78° W 06:52:10 10° N
Cosmos 1092 Rocket 4.3 06:41:48 10° N 06:48:09 74° E 06:54:23 10° SSE
Cosmos 1603 4.3 06:46:05 15° NW 06:50:11 37° WSW 06:55:19 10° S
Cosmos 1908 3.7 06:46:43 10° S 06:50:29 62° E 06:54:18 10° NNE
Cosmos 968 Rocket 3.9 06:46:10 10° SW 06:51:08 41° WNW 06:56:09 10° NNE
Cosmos 2112 Rocket 4.1 06:50:10 10° NNW 06:55:26 62° WSW 07:00:42 10° S
Cosmos 1666 Rocket 3.7 06:52:41 10° NNW 06:57:03 55° W 07:01:25 10° S
Cosmos 1464 Rocket 4.1 06:53:17 10° SSW 06:59:29 55° WNW 07:05:38 10° N
Cosmos 2263 Rocket 3.4 06:54:53 10° S 07:00:17 46° ESE 07:05:43 10° NE
Cosmos 1184 Rocket 3.4 07:00:50 10° NNW 07:03:55 35° W 07:06:57 10° SSW
Cosmos 2221 3.0 07:01:32 10° SW 07:05:35 37° WNW 07:09:37 10° N
Cosmos 2058 4.3 07:04:35 12° NW 07:06:56 19° W 07:09:50 10° SW
MSX 4.1 07:02:54 10° NNE 07:08:42 76° ESE 07:14:28 10° S
Cosmos 1933 Rocket 3.7 07:04:12 10° N 07:08:42 80° ENE 07:13:09 10° SSE
CSL-04 Rocket 4.0 07:08:43 10° N 07:13:39 40° WNW 07:18:32 10° SW
Cosmos 1300 4.3 07:12:36 10° SSE 07:16:11 39° E 07:19:46 10° NNE
SPOT 3 Rocket 3.5 07:14:27 10° NNE 07:19:42 81° WNW 07:24:55 10° SSW
Cosmos 1726 3.5 07:16:48 10° SSE 07:20:18 43° E 07:23:51 10° NNE
Cosmos 1655 Rocket 4.4 07:16:51 10° N 07:23:10 69° ENE 07:29:22 10° SSE
Cosmos 2227 4.4 07:18:16 10° SW 07:23:41 48° NW 07:29:10 10° NNE
Cosmos 1777 Rocket 4.4 07:20:27 10° SW 07:25:19 39° WNW 07:30:13 10° NNE
Cosmos 1470 Rocket 3.6 07:25:16 10° NNW 07:29:31 59° W 07:33:47 10° S
Helios 1B rocket 3.2 07:28:28 10° SSW 07:32:12 33° W 07:35:57 10° NNW
MOS 1 4.3 07:27:46 10° NNE 07:33:27 67° WNW 07:39:05 10° SSW
AQUARIUS 4.5 07:29:22 10° N 07:33:40 45° WNW 07:37:57 10° SW
IDEFIX/ARIANE 42P 2.9 07:30:00 10° N 07:35:02 46° WNW 07:40:02 10° SW
ATLAS 2AS CENTAUR R/B 3.2 07:31:42 10° NW 07:39:44 67° SW 07:47:17 10° SSE
